Showing default

LEMUR-2 WOBLER, 67368

Orbit data source: Space-Track

LEMUR-2 WOBLER, 67368 is a payload satellite owned by Spire/Lux (US) in SSO that was launched on Sun, 11 Jan 2026 UTC via an FALCON 9 launch vehicle from the Air Force Western Test Range (AFWTR). Payload-class satellites include a variety of spacecraft equipped with specific instruments for various scientific and technological missions. These include communications satellites like Starlink; space stations such as the ISS; scientific satellites like the Hubble; Earth observation satellites from companies like Planet Labs, Umbra, and HawkEye 360; GPS; miniature CubeSats for education and research; and military/defense satellites.

Loading next visibility...
Identifier
67368, 2026-004F
Orbit
SSO
Country
Flag of USUS
Related business
Manufacturer
Spire/Glasgow
Mission
Operational Commercial Com/MetRO
Bus & Motor
CUBESAT 3U, Unknown motor
Mass
4.6 kg wet, 4.6 kg dry
Launch date (UTC)
2026-01-11 (4 months ago)
Launch vehicle
FALCON 9
Launch site
Air Force Western Test Range (AFWTR)
Object type
Payload
Rocket body
Debris
Shape & HBR
Box + 2 Pan, 0.2 m
Radar Cross Section
0.054 m²

Expand to show TLE details & history
Last TLE update: 12 hours ago

TLE from 12 hours ago
0 LEMUR-2 WOBLER
1 67368U 26004F   26146.26133615  .00004356  00000-0  47631-3 0  9990
2 67368  97.8039 145.2504 0007490 192.1021 168.0017 14.88333287 20030
Epoch: 2026-05-26T06:16Z
TLE epoch observation values (Epoch: 2026-05-26T06:16:19.443Z)
Latitude
-0.00001°
Longitude
167.33208°
Altitude
611.295 km
Speed
7.551 km/s
True Right ascension
09h 41m 00s
True Declination
0° 00' 00"
Sunlit
Object was in daylight at epoch
Visualization orbit readout
Latitude
Unknown
Longitude
Unknown
Altitude
Unknown
Speed
Unknown
Apparent Right ascension
Unknown
Apparent Declination
Unknown
Sunlit
N/A
Visualization observer readout
Local Sidereal Time
03:34:54
Azimuth
Unknown
Elevation
Unknown
Doppler factor
Unknown
Orbital elements
Apogee altitude
605.395 km
Perigee altitude
594.941 km
Semi-major axis
6,978.305 km
Eccentricity
0.00075
Inclination
97.8039°
RAAN
145.2504°
Arg. of periapsis
192.1021°
True anomaly
168.01953°
Mean anomaly
168.0017°
Eccentric anomaly
168.01061°
Mean motion
3.72322 °/min
Orbital period
96.69 mins
BSTAR
0.00047631
Loading maneuver chart data...
Computing Atmospheric mass density...
Loading historical data...
Loading historical data...
Loading historical data...
Loading historical data...
Loading historical data...
Loading historical data...
Loading historical data...

Documentation

Showing up to 5 results
|